Location: Chemilly-sur-Serein
(47.7710°N, 3.8617°E)
Time: 22:25:15
(UTC+00:00)

Daily predictions for brighter satellites

Satellite Brightness Start Highest point End
(mag) Time Altitude Azimuth Time Altitude Azimuth Time Altitude Azimuth
BREEZE-M (TANK) 4.4 17:34:41 10° WNW 17:38:59 88° NNE 17:58:22 10° ESE
Cosmos 1844 Rocket 3.3 17:58:02 10° SSE 18:02:59 34° ESE 18:07:58 10° NE
Cosmos 372 Rocket 4.1 17:59:40 10° S 18:04:49 59° ESE 18:09:56 10° NNE
Cosmos 1707 2.9 18:01:06 10° N 18:04:52 50° ENE 18:08:36 10° SSE
NOSS 3-2 (C) 4.2 17:58:47 10° NW 18:06:01 59° NE 18:14:15 10° ESE
Cosmos 1844 4.4 18:05:29 10° SSE 18:10:26 32° ESE 18:15:22 10° NE
ISS -3.5 18:07:23 10° WSW 18:10:45 72° NNW 18:14:08 10° ENE
USA 186 3.7 18:11:36 10° E 18:13:27 15° ENE 18:15:21 10° NNE
Meteor 1-12 Rocket 4.5 18:08:41 10° S 18:14:21 52° E 18:19:56 10° NNE
Cosmos 1300 Rocket 3.7 18:15:24 10° SSE 18:19:40 50° E 18:23:58 10° NNE
Okean 1 Rocket 4.4 18:19:47 10° SE 18:23:05 21° E 18:26:24 10° NE
Sich 1 Rocket 3.6 18:19:28 10° S 18:23:58 87° E 18:28:34 10° N
NOSS 2-2 (E) 4.1 18:21:20 10° WSW 18:24:46 49° NW 18:28:48 10° NNE
CENTAUR R/B 3.3 18:17:13 10° NW 18:25:08 69° NE 18:33:53 10° SE
Cosmos 2298 Rocket 4.1 18:20:51 10° S 18:26:05 62° ESE 18:31:21 10° NNE
Cosmos 1833 Rocket 4.1 18:22:06 10° N 18:26:23 21° NE 18:30:12 12° E
Iridium 4 Rocket 4.4 18:23:17 10° SSW 18:28:24 57° W 18:34:00 10° N
CSL-04 Debris 4.1 18:25:05 10° SSE 18:30:27 79° ENE 18:35:52 10° NNW
CSL-04 Rocket 3.7 18:26:58 10° SSE 18:32:24 78° ENE 18:37:57 10° NNW
ATLAS 2AS CENTAUR R/B 3.6 18:27:22 10° S 18:34:10 33° ESE 18:40:59 10° NE
Okean 2 Rocket 3.0 18:29:43 10° S 18:34:11 73° E 18:38:39 10° NNE
Cosmos 1025 Rocket 3.0 18:29:54 10° N 18:34:18 76° E 18:38:42 10° SSE
NOSS 2-2 (D) 4.1 18:31:11 10° WSW 18:34:38 49° NW 18:38:35 10° NNE
YAOGAN 1 2.9 18:30:43 10° S 18:35:01 69° WSW 18:39:22 10° NNW
ATLAS 3B R/B 3.5 18:31:00 10° NNW 18:37:14 37° NNE 18:42:35 15° E
SWAS 4.4 18:35:48 10° NNW 18:40:07 76° ENE 18:44:23 10° SSE
Abrixas rocket 1.9 18:37:39 10° W 18:40:29 70° SSW 18:42:11 21° ESE
Cosmos 1513 Rocket 4.5 18:35:31 10° S 18:41:45 84° E 18:47:55 10° N
CREW DRAGON DEMO-1 DEB 2.7 18:39:23 10° WNW 18:42:25 88° SSW 18:44:16 21° ESE
Cosmos 1536 Rocket 3.5 18:39:37 10° N 18:44:05 72° E 18:48:33 10° SSE
Cosmos 1125 Rocket 3.6 18:41:32 10° S 18:46:44 58° ESE 18:51:57 10° NNE
SJ-6B 3.6 18:48:31 20° ESE 18:50:21 31° ENE 18:53:43 10° N
CZ-4 R/B 3.1 18:48:48 10° SSW 18:52:42 37° W 18:56:36 10° NNW
Cosmos 2150 Rocket 4.1 18:48:14 10° SSW 18:53:39 87° WNW 18:59:09 10° NNE
SJ-11-01 4.5 18:48:58 10° S 18:53:40 77° WSW 18:58:23 10° NNW
USA 238 DEB 4.2 18:47:17 10° NW 18:54:27 69° SW 19:01:54 10° SSE
USA 238 4.2 18:47:23 10° NW 18:54:34 70° SW 19:02:01 10° SSE
CZ-2C R/B 3.6 18:49:25 10° S 18:54:45 66° W 19:00:25 10° NNW
Cosmos 1464 Rocket 4.1 18:48:58 10° S 18:55:07 82° W 19:01:22 10° N
Cosmos 1674 2.6 18:52:38 10° N 18:56:29 64° E 19:00:17 10° SSE
Cosmos 2026 Rocket 4.4 18:51:06 10° N 18:57:09 43° ENE 19:02:16 14° SE
Cosmos 1092 Rocket 4.1 18:51:22 10° N 18:57:25 54° ENE 19:03:29 10° SSE
Cosmos 2285 Rocket 4.0 18:51:17 10° S 18:57:26 59° ESE 19:03:41 10° NNE
MOS 1 Rocket 3.0 18:58:38 10° NNE 19:03:03 84° ESE 19:07:19 10° SSW
FREGAT/IRIS 3.4 19:04:41 28° NE 19:04:41 28° NE 19:06:27 10° N
TSX-5 4.3 19:04:57 10° S 19:08:35 43° ESE 19:13:11 10° NE
ARGOS 3.2 19:04:57 10° SSE 19:10:19 80° WSW 19:15:45 10° NNW
CZ-2C R/B 2.8 19:07:50 10° NNE 19:13:18 52° E 19:18:45 10° S
Cosmos 1340 Rocket 3.7 19:15:11 29° ENE 19:15:11 29° ENE 19:18:00 10° NNE
Cosmos 1733 3.3 19:13:48 21° SSE 19:16:05 49° E 19:19:48 10° NNE
Cosmos 2151 Rocket 4.2 19:12:29 10° SSW 19:16:54 58° WNW 19:21:22 10° N
MOS 1 4.3 19:13:05 16° SSE 19:17:45 68° ENE 19:23:25 10° N
Lacrosse 5 rocket 3.1 19:14:46 10° NW 19:18:31 27° N 19:20:43 18° NE
Cosmos 2082 Rocket 3.2 19:14:50 10° NNW 19:19:41 28° NE 19:21:17 25° ENE
BREEZE-M DEB (TANK) 3.9 19:19:22 10° W 19:22:35 42° SSW 19:27:36 20° SE
DMSP B5D2-2 4.2 19:17:56 10° NNE 19:23:08 53° E 19:28:18 10° S
BREEZE-M R/B 3.8 19:12:48 10° WSW 19:23:12 78° SSE 19:24:25 40° E
Cosmos 494 Rocket 4.5 19:19:32 10° NNW 19:24:44 60° WSW 19:29:53 10° S
Meteor 1-15 Rocket 4.3 19:21:55 10° SSW 19:27:35 79° WNW 19:33:23 10° N
Cosmos 1805 3.2 19:24:04 10° S 19:27:59 84° WNW 19:31:56 10° N
OBJECT-B 1.7 19:28:48 36° NE 19:28:48 36° NE 19:31:10 10° N
Milstar 3 Cent rocket 4.3 19:29:35 10° SSW 19:31:22 11° S 19:32:39 10° S
Ariane Rocket 3.0 19:28:06 16° SSE 19:32:11 83° WSW 19:37:18 10° NNW
SL-08 RB Rocket 4.0 19:27:52 11° S 19:32:16 65° WSW 19:36:47 10° NNW
H-2A R/B 3.4 19:29:10 10° SSW 19:33:48 38° W 19:38:35 10° NNW
Cosmos 1269 Rocket 4.0 19:31:23 10° NNW 19:36:44 83° WSW 19:39:33 29° SSE
Cosmos 1626 2.0 19:38:03 10° N 19:41:47 89° W 19:42:02 77° S
Okean 1-7 Rocket 4.0 19:37:42 10° N 19:41:51 44° ENE 19:41:51 44° ENE
MetOp-A 4.1 19:40:20 24° SSE 19:43:43 83° WSW 19:49:07 10° NNW
USA 186 3.1 19:42:34 26° SSW 19:43:49 39° W 19:46:57 10° NNW
COSMOS 2406 3.1 19:40:16 10° NNW 19:45:59 83° ENE 19:47:55 43° SE
Cosmos 1844 Rocket 3.8 19:41:27 10° SW 19:46:45 43° NW 19:52:07 10° NNE
ISS -2.7 19:44:38 10° WNW 19:47:46 40° N 19:47:46 40° N
Cosmos 2278 Rocket 2.4 19:45:17 10° S 19:51:32 46° E 19:56:09 10° NE
Lacrosse 4 Rocket 2.2 19:49:37 10° NNW 19:52:52 38° NNE 19:52:52 38° NNE
Meteor 1-22 Rocket 4.3 19:49:31 10° S 19:55:26 90° E 20:01:35 10° NNE
Meteor 2-5 Rocket 4.2 19:50:36 10° NNW 19:56:11 59° W 20:00:46 16° S
Meteor 1-24 Rocket 3.9 19:52:58 10° NNW 19:58:33 73° W 20:01:37 28° S
Cosmos 909 Rocket 4.3 19:52:09 10° NNW 19:58:36 53° NE 19:59:55 45° E
Exosat Rocket 4.3 19:53:36 10° SW 19:58:44 51° WNW 20:03:40 10° NNE
Okean 1 Rocket 4.2 19:56:23 10° SSW 20:00:40 44° WNW 20:05:00 10° N
Cosmos 2266 Rocket 4.4 19:55:03 10° N 20:00:33 41° ENE 20:00:33 41° ENE
SL-14 R/B 3.6 19:57:48 10° NNW 20:01:43 61° W 20:01:55 60° WSW
NOSS 3-4 (A) 3.4 19:55:55 10° SW 20:01:51 83° NW 20:08:16 10° NE
NOSS 3-4 (C) 3.4 19:56:02 10° SW 20:01:58 84° NW 20:08:23 10° NE
Meteor 2-19 Rocket 4.3 19:56:38 10° N 20:02:44 67° ENE 20:03:47 56° SE
Resurs 01 Rocket 1.8 20:03:26 60° NNE 20:03:26 60° NNE 20:07:20 10° N
Cosmos 1833 Rocket 2.6 20:05:23 10° NNW 20:11:04 86° WSW 20:11:54 67° SSE
Cosmos 2251 Rocket 3.6 20:08:38 10° NNW 20:13:44 62° NE 20:13:44 62° NE
CENTAUR R/B 4.2 20:08:16 10° NW 20:15:45 40° WSW 20:22:00 17° S
ARIANE 5 R/B 3.8 20:20:05 34° N 20:20:05 34° N 20:22:42 10° N
SPOT 3 Rocket 3.7 20:20:50 58° SSW 20:21:34 66° WSW 20:26:43 10° NNW
ATLAS 2AS CENTAUR R/B 3.2 20:16:43 10° SW 20:24:41 75° NW 20:32:35 10° NE
Resurs 1-3 4.4 20:26:17 47° W 20:26:19 47° W 20:30:36 10° NNW
ATLAS 3B R/B 2.8 20:21:38 10° NW 20:28:30 73° SW 20:29:50 59° S
Cosmos 1892 Rocket 4.4 20:24:36 10° NNW 20:28:36 46° W 20:28:36 46° W
SPOT 5 4.4 20:33:48 29° NNE 20:33:48 29° NNE 20:36:57 10° N
Meteor 1-21 Rocket 4.4 20:28:07 10° N 20:33:15 65° NNE 20:33:15 65° NNE
Cosmos 1655 Rocket 3.9 20:31:10 10° N 20:37:29 87° W 20:37:50 81° SSW
Lacrosse 5 rocket 3.3 20:53:58 10° NW 20:56:20 30° NW 20:56:20 30° NW
Cosmos 2098 Rocket 4.3 20:55:16 10° NNW 21:01:45 58° W 21:01:45 58° W
Cosmos 2082 Rocket 2.9 20:58:37 10° NW 21:03:08 50° WNW 21:03:08 50° WNW
Terra 4.0 21:21:45 21° N 21:21:45 21° N 21:23:21 10° N
Lacrosse 4 Rocket 4.4 21:28:42 10° WNW 21:29:10 12° WNW 21:29:10 12° WNW
Cosmos 2278 Rocket 3.7 21:33:01 26° W 21:35:00 32° NW 21:40:06 10° NNE
Resurs 01 Rocket 4.4 21:41:01 13° WNW 21:41:01 13° WNW 21:42:20 10° NW
ATLAS 2AS CENTAUR R/B 4.5 22:10:01 10° W 22:16:58 32° NNW 22:23:43 10° NE
